TimeMST,TemperatureF,Dew PointF,Humidity,Sea Level PressureIn,VisibilityMPH,Wind Direction,Wind SpeedMPH,Gust SpeedMPH,PrecipitationIn,Events,Conditions,WindDirDegrees,DateUTC
12:53 AM,10.9,5.0,77,30.02,10.0,Calm,Calm,-,N/A,,Clear,0,2013-02-26 07:53:00
1:53 AM,12.0,6.1,77,30.00,10.0,Calm,Calm,-,N/A,,Mostly Cloudy,0,2013-02-26 08:53:00
2:53 AM,10.9,5.0,77,29.98,10.0,Calm,Calm,-,N/A,,Overcast,0,2013-02-26 09:53:00
3:45 AM,14.0,8.6,79,29.85,2.5,Calm,Calm,-,0.00,Snow,Light Snow,0,2013-02-26 10:45:00
3:53 AM,14.0,9.0,80,29.97,1.5,Calm,Calm,-,0.00,Snow,Light Snow,0,2013-02-26 10:53:00
4:03 AM,14.0,10.4,86,29.85,3.0,Calm,Calm,-,0.00,Snow,Light Snow,0,2013-02-26 11:03:00
4:27 AM,14.0,10.4,86,29.85,2.5,Calm,Calm,-,0.00,Snow,Light Snow,0,2013-02-26 11:27:00
4:42 AM,15.8,10.4,79,29.85,1.8,Calm,Calm,-,0.00,Snow,Light Snow,0,2013-02-26 11:42:00
4:51 AM,15.8,10.4,79,29.86,1.0,Calm,Calm,-,0.01,Snow,Light Snow,0,2013-02-26 11:51:00
4:53 AM,15.1,12.0,88,29.96,0.8,Calm,Calm,-,0.01,Snow,Light Snow,0,2013-02-26 11:53:00
5:06 AM,15.8,12.2,86,29.86,1.0,NNE,4.6,-,0.00,Snow,Light Snow,30,2013-02-26 12:06:00
5:15 AM,15.8,12.2,86,29.86,1.5,NE,3.5,-,0.00,Snow,Light Snow,50,2013-02-26 12:15:00
5:26 AM,15.8,12.2,86,29.86,3.0,Calm,Calm,-,0.00,Snow,Light Snow,0,2013-02-26 12:26:00
5:42 AM,15.8,12.2,86,29.87,2.5,Calm,Calm,-,0.00,Snow,Light Snow,0,2013-02-26 12:42:00
5:53 AM,16.0,12.9,88,30.03,3.0,SSW,3.5,-,0.00,Snow,Light Snow,210,2013-02-26 12:53:00
6:53 AM,16.0,14.0,92,30.06,10.0,SW,4.6,-,0.00,,Overcast,220,2013-02-26 13:53:00
7:53 AM,18.0,15.1,88,30.07,10.0,Calm,Calm,-,N/A,,Overcast,0,2013-02-26 14:53:00
8:53 AM,19.0,15.1,85,30.08,10.0,Calm,Calm,-,0.00,,Overcast,0,2013-02-26 15:53:00
9:53 AM,21.0,15.1,78,30.08,10.0,SSE,4.6,-,N/A,,Overcast,160,2013-02-26 16:53:00
10:53 AM,24.1,12.9,62,30.07,10.0,North,9.2,-,N/A,,Overcast,350,2013-02-26 17:53:00
11:53 AM,24.1,10.9,57,30.08,10.0,North,13.8,20.7,0.00,,Overcast,350,2013-02-26 18:53:00
12:53 PM,24.1,15.1,69,30.09,4.0,NW,8.1,-,0.00,Snow,Light Snow,320,2013-02-26 19:53:00
1:16 PM,24.8,17.6,74,29.95,1.8,NNW,9.2,-,0.00,Snow,Light Snow,330,2013-02-26 20:16:00
1:24 PM,23.0,17.6,80,29.95,1.0,NW,10.4,-,0.00,Snow,Light Snow,320,2013-02-26 20:24:00
1:34 PM,24.8,17.6,74,29.95,2.0,NNW,9.2,-,0.00,Snow,Light Snow,330,2013-02-26 20:34:00
1:48 PM,24.8,17.6,74,29.96,1.2,NNW,12.7,17.3,0.01,Snow,Light Snow,330,2013-02-26 20:48:00
1:53 PM,24.1,16.0,71,30.10,1.2,NNW,12.7,17.3,0.01,Snow,Light Snow,330,2013-02-26 20:53:00
2:05 PM,24.8,15.8,69,29.96,3.0,NW,13.8,-,0.00,Snow,Light Snow,320,2013-02-26 21:05:00
2:41 PM,24.8,17.6,74,29.98,2.5,NW,10.4,-,0.00,Snow,Light Snow,320,2013-02-26 21:41:00
2:53 PM,24.1,18.0,77,30.13,1.8,NW,9.2,-,0.00,Snow,Light Snow,320,2013-02-26 21:53:00
3:06 PM,24.8,17.6,74,29.99,2.5,NW,8.1,-,0.00,Snow,Light Snow,320,2013-02-26 22:06:00
3:13 PM,24.8,17.6,74,29.99,2.0,NW,8.1,-,0.00,Snow,Light Snow,320,2013-02-26 22:13:00
3:17 PM,24.8,17.6,74,29.99,1.8,NNW,9.2,-,0.00,Snow,Light Snow,330,2013-02-26 22:17:00
3:41 PM,24.8,19.4,80,30.00,2.0,West,3.5,-,0.00,Snow,Light Snow,280,2013-02-26 22:41:00
3:45 PM,24.8,17.6,74,30.00,3.0,NW,3.5,-,0.00,Snow,Light Snow,320,2013-02-26 22:45:00
3:53 PM,25.0,17.1,72,30.14,7.0,WNW,5.8,-,0.00,,Overcast,300,2013-02-26 22:53:00
4:21 PM,24.8,17.6,74,30.02,9.0,NE,4.6,-,0.00,,Overcast,50,2013-02-26 23:21:00
4:53 PM,24.1,15.1,69,30.16,5.0,NNW,8.1,-,0.00,Snow,Light Snow,330,2013-02-26 23:53:00
5:53 PM,21.9,12.0,66,30.19,10.0,North,9.2,-,0.00,,Overcast,10,2013-02-27 00:53:00
6:53 PM,21.9,12.9,68,30.24,10.0,SW,3.5,-,N/A,,Overcast,230,2013-02-27 01:53:00
7:53 PM,19.9,12.9,74,30.25,10.0,Calm,Calm,-,N/A,,Overcast,0,2013-02-27 02:53:00
8:53 PM,12.9,8.1,81,30.31,10.0,Calm,Calm,-,N/A,,Mostly Cloudy,0,2013-02-27 03:53:00
9:53 PM,9.0,3.9,80,30.35,10.0,Calm,Calm,-,N/A,,Overcast,0,2013-02-27 04:53:00
10:28 PM,10.4,6.8,85,30.17,7.0,Calm,Calm,-,0.00,Snow,Light Snow,0,2013-02-27 05:28:00
10:49 PM,8.6,3.2,79,30.17,10.0,Calm,Calm,-,0.00,,Overcast,0,2013-02-27 05:49:00
10:53 PM,8.1,3.9,83,30.35,10.0,Calm,Calm,-,0.00,,Overcast,0,2013-02-27 05:53:00
11:46 PM,12.2,8.6,85,30.18,2.5,Calm,Calm,-,0.00,Snow,Light Snow,0,2013-02-27 06:46:00
11:53 PM,12.0,8.1,84,30.34,3.0,Calm,Calm,-,0.00,Snow,Light Snow,0,2013-02-27 06:53:00